Location: Armidale
(30.5016°S, 151.6662°E)
Time: 11:26:50
(UTC+10:00)

METEOR M2 - Visible Passes

Search period start: 05 August 2021 00:00
Search period end: 15 August 2021 00:00
Orbit: 818 x 827 km, 98.5° (Epoch: 04 August)

Date Brightness Start Highest point End Pass type
(mag) Time Alt. Az. Time Alt. Az. Time Alt. Az.
05 Aug ? 19:03:42 44° ENE 19:03:42 44° ENE 19:08:27 10° N visible
05 Aug ? 20:45:07 15° W 20:45:07 15° W 20:46:42 10° WNW visible
06 Aug ? 18:43:26 28° E 18:43:26 28° E 18:47:55 10° NNE visible
06 Aug ? 20:24:50 25° W 20:24:50 25° W 20:27:56 10° NW visible
07 Aug ? 05:55:48 10° NE 06:00:12 27° ESE 06:04:39 10° SSE visible
07 Aug ? 18:23:08 17° E 18:23:18 18° E 18:26:49 10° NE visible
07 Aug ? 20:04:33 40° W 20:04:33 40° W 20:08:41 10° NW visible
08 Aug ? 05:37:07 10° ENE 05:40:30 17° ESE 05:43:53 10° SSE visible
08 Aug ? 18:02:50 10° E 18:03:13 10° E 18:03:52 10° E visible
08 Aug ? 19:44:15 67° WNW 19:44:15 67° WNW 19:49:07 10° NNW visible
09 Aug ? 05:19:51 10° ESE 05:20:51 10° ESE 05:21:51 10° SE visible
09 Aug ? 19:23:57 73° ENE 19:23:57 73° ENE 19:29:15 10° N visible
10 Aug ? 19:03:38 45° E 19:03:56 46° E 19:09:05 10° N visible
10 Aug ? 20:45:02 17° W 20:45:02 17° W 20:47:13 10° WNW visible
11 Aug ? 18:43:18 28° E 18:43:57 29° E 18:48:33 10° NNE visible
11 Aug ? 20:24:42 27° W 20:24:42 27° W 20:28:28 10° NW visible
12 Aug ? 05:56:20 10° NE 06:00:48 27° ESE 06:05:17 10° SSE visible
12 Aug ? 18:22:57 17° E 18:23:55 18° E 18:27:30 10° NE visible
12 Aug ? 20:04:22 43° WSW 20:04:22 43° WSW 20:09:16 10° NW visible
13 Aug ? 05:37:37 10° ENE 05:41:05 18° ESE 05:44:34 10° SSE visible
13 Aug ? 18:02:43 10° E 18:03:49 11° E 18:04:56 10° ENE visible
13 Aug ? 19:44:00 67° SW 19:44:21 69° WSW 19:49:42 10° NNW visible
14 Aug ? 05:20:07 10° ESE 05:21:26 11° ESE 05:22:45 10° SE visible
14 Aug ? 19:23:37 62° SE 19:24:29 76° ENE 19:29:51 10° N visible
14 Aug ? 21:05:01 10° WSW 21:05:01 10° WSW 21:05:12 10° WSW visible
